Location: Burgerwiesen
(48.6500°N, 15.6167°E)
Time: 22:57:02
(UTC+00:00)

MONITOR-E - Pass Details

Date: 09 April 2020
Orbit: 308 x 313 km, 97.0° (Epoch: 27 May)

Event Time Altitude Azimuth Distance (km) Brightness Sun altitude
Exits shadow 18:40:08 - 176° (S) 1,896 7.3 -10.1°
Reaches altitude 10° 18:41:40 10° 180° (S) 1,228 6.4 -10.3°
Maximum altitude 18:44:13 53° 259° (W) 407 4.5 -10.7°
Drops below altitude 10° 18:46:50 10° 339° (NNW) 1,256 7.4 -11.1°
Sets 18:48:47 0° 344° (NNW) 2,102 8.5 -11.4°
